Regional Weather Roundup
Issued by NWS Burlington, VT

Home | Current Version | Previous Version | Text Only | Print | Product List | Glossary On
Versions: 1 2 3 4 5 6 7 8 9 10 11 12 13 14 15 16 17 18 19 20 21 22 23 24 25 26 27 28 29 30 31 32 33 34 35 36 37 38 39 40 41 42 43 44 45 46 47 48 49 50
000
ASUS41 KBTV 310430
RWRBTV
VERMONT REGIONAL WEATHER ROUNDUP
NATIONAL WEATHER SERVICE BURLINGTON VT
1200 AM EDT WED AUG 31 2016

NOTE: "FAIR" INDICATES FEW OR NO CLOUDS BELOW 12,000 FEET WITH NO
SIGNIFICANT WEATHER AND/OR OBSTRUCTIONS TO VISIBILITY.

* THESE REPORTS ARE NOT UNDER NWS QUALITY CONTROL AND/OR DO NOT
  REPORT WEATHER SUCH AS PRECIPITATION AND FOG.

VTZ001>019-310500-
_____VERMONT_____


CITY           SKY/WX    TMP DP  RH WIND       PRES   REMARKS
BURLINGTON     CLOUDY    71  57  61 S8        29.97F
MONTPELIER     MOCLDY    60  57  89 CALM      30.05F
MORRISVILLE    MOCLDY    61  59  93 CALM      30.01F
ST. JOHNSBURY*   N/A     65  59  81 MISG      30.00F
LYNDONVILLE*   MOCLDY    59  58  97 CALM      30.03F
MIDDLEBURY*    FAIR      69  58  68 CALM      30.00S
RUTLAND*       PTCLDY    62  57  83 SE9       30.03F
SPRINGFIELD    PTCLDY    60  57  89 CALM      30.04F
HIGHGATE*      MOCLDY    69  61  75 S5        29.95F
NEWPORT*       CLOUDY    64  57  80 S3        30.00F
BENNINGTON     CLEAR     58  55  90 CALM      30.05F
SUTTON*          N/A     61 N/A N/A MISG        N/A
MT. MANSFIELD*   N/A     59 N/A N/A NW26        N/A

_____LAKE CHAMPLAIN_____


CITY           SKY/WX    TMP DP  RH WIND       PRES   REMARKS
BURTON ISLAND*   N/A     73  63  68 S9          N/A
COLCHESTER RF*   N/A     73  66  78 S17         N/A
DIAMOND ISL*     N/A     72  63  73 S6          N/A

$$

NYZ007-026>031-035-052-083-087-310500-
_____NORTHERN NEW YORK_____


CITY           SKY/WX    TMP DP  RH WIND       PRES   REMARKS
PLATTSBURGH    CLOUDY    67  62  84 S3        29.96F
SARANAC LAKE   PTCLDY    62  57  83 SW3       30.03F
MASSENA        CLOUDY    70  58  65 SW8       29.97S
OGDENSBURG*    CLEAR     66  61  82 CALM      29.97S
POTSDAM*       CLEAR     68  63  83 SW3       29.98F
WATERTOWN      CLOUDY    64  59  83 SE5       29.98F
FT DRUM        CLEAR     67  59  76 SE8       30.00F
ALBANY         PTCLDY    66  59  78 S3        30.03F
GLENS FALLS    PTCLDY    62  59  90 CALM      30.01F

$$
NHZ002-005-011-310500-
_____NEW HAMPSHIRE_____


CITY           SKY/WX    TMP DP  RH WIND       PRES   REMARKS
LEBANON        PTCLDY    59  56  89 CALM      30.03S
KEENE          CLEAR     58  57  97 CALM      30.05F
MT WASHINGTON  FOG       48  48 100 W30         N/A  VSB 0
PLYMOUTH       FAIR      56  55  96 CALM      30.03F FOG
WHITEFIELD     MOCLDY    59  56  89 CALM      30.03F

$$

_____REGIONAL QUEBEC LOCATIONS_____


CITY           SKY/WX    TMP DP  RH WIND       PRES   REMARKS
MONTREAL       MOCLDY    72  61  68 SW8G17    29.92S
QUEBEC CITY    CLOUDY    63  63 100 N3        29.92F
SHERBROOKE     LGT RAIN  63  61  94 SE6       29.96F

_____REGIONAL ONTARIO LOCATIONS_____


CITY           SKY/WX    TMP DP  RH WIND       PRES   REMARKS
OTTAWA         MOCLDY    68  63  83 SW5       29.95F

______KEY______
VSB  - VISIBILITY IN MILES
WCI  - WIND CHILL INDEX
HX   - HEAT INDEX
$$
NNNN




USA.gov is the U.S. government's official web portal to all federal, state and local government web resources and services.